(288635) = 2004 PO25

Discovered at Socorro on 2004-08-08 by LINEAR.

Orbit

Orbit type: Main Belt

Note: WebGL enabled browser required.

epoch2023-09-13.0
epoch JD2460200.5
perihelion date2020-11-05.85667
perihelion JD2459159.35667
argument of perihelion (°)298.07826
ascending node (°)321.56512
inclination (°)6.91398
eccentricity0.1775440
perihelion distance (AU)1.8346357
Tisserand w.r.t. Jupiter3.6
ΔV w.r.t. Earth (km/sec)8.6
semimajor axis (AU)2.2306795
mean anomaly (°)308.00559
mean daily motion (°/day)0.29583400
aphelion distance (AU)2.627
period (years)3.33
P-vector [x]-0.17578599
P-vector [y]-0.85567486
P-vector [z]-0.48674410
Q-vector [x]0.98158019
Q-vector [y]-0.18993757
Q-vector [z]-0.02059242
absolute magnitude17.27
phase slope0.15
uncertainty0
referenceMPEC 2023-Y06
observations used323
oppositions15
arc length (days)8379
first opposition used2000
last opposition used2023
residual rms (arc-secs)0.81
perturbers coarse indicatorM-v
perturbers precise indicator003Ek
first observation date used2000-05-05.0
last observation date used2023-04-14.0
computer nameMPCLINUX
JD of orbit computation2456966.769169
perihelion JD uncertainty (days)5.2885E-05
argument of perihelion uncertainty (°)2.3622E-05
ascending node uncertainty (°)1.7325E-05
inclination uncertainty (°)5.1998E-06
eccentricity uncertainty 3.4054E-08
perihelion distance uncertainty (AU)7.3998E-08
Minimum Orbit Intersection Distances (in AU)
for orbit epoch: 2460200.5, reference: E2023-Y06
Mercury1.36861
Venus1.11404
Earth0.83073
Mars0.37637
Jupiter2.47187
Saturn6.45576
Uranus16.124
Neptune27.3296

Observations

330 total observations over interval: 2000 05 05.223390 – 2023 04 14.148291
These data are available for download (format description).

Date (UT) J2000 RA J2000 Dec Magn Location Ref
2000 05 05.223390 10 30 37.698 +01 59 52.72 20.70 V 645 – Apache Point-Sloan Digital Sky Survey MPS 149548
2000 05 05.226862 10 30 37.780 +01 59 52.28 21.51   645 – Apache Point-Sloan Digital Sky Survey MPS 149548
2001 09 28.41673 01 05 41.11 +17 14 48.7 20.8   644 – Palomar Mountain/NEAT MPS 149548
2001 09 28.43814 01 05 39.71 +17 14 44.4 20.8   644 – Palomar Mountain/NEAT MPS 149548
2001 09 28.45763 01 05 38.41 +17 14 40.2 21.1   644 – Palomar Mountain/NEAT MPS 149548
2003 01 29.166800 08 17 40.285 +23 14 04.59 20.35 V 645 – Apache Point-Sloan Digital Sky Survey MPS 149548
2003 01 29.170272 08 17 40.026 +23 14 04.81 21.13   645 – Apache Point-Sloan Digital Sky Survey MPS 149548
2004 08 08.29017 21 55 42.66 -12 45 40.9 19.2   704 – Lincoln Laboratory ETS, New Mexico MPS 111201
2004 08 08.29958 21 55 42.06 -12 45 39.8 20.1   704 – Lincoln Laboratory ETS, New Mexico MPS 111201
2004 08 08.30891 21 55 41.35 -12 45 40.3 19.8   704 – Lincoln Laboratory ETS, New Mexico MPS 111201
2004 08 08.31836 21 55 40.72 -12 45 40.9 19.3   704 – Lincoln Laboratory ETS, New Mexico MPS 111201
2004 08 08.32776 21 55 40.05 -12 45 40.7 19.2   704 – Lincoln Laboratory ETS, New Mexico MPS 111201
2004 08 09.28661 21 54 37.07 -12 45 51.7 18.6 R 699 – Lowell Observatory-LONEOS MPS 111201
2004 08 09.29879 21 54 36.20 -12 45 51.4   699 – Lowell Observatory-LONEOS MPS 111201
2004 08 09.31096 21 54 35.43 -12 45 52.8   699 – Lowell Observatory-LONEOS MPS 111201
2004 08 09.32311 21 54 34.57 -12 45 52.1   699 – Lowell Observatory-LONEOS MPS 111201
2004 08 10.22394 21 53 34.94 -12 46 01.8 19.0   704 – Lincoln Laboratory ETS, New Mexico MPS 111201
2004 08 10.23409 21 53 34.27 -12 46 01.7 19.4   704 – Lincoln Laboratory ETS, New Mexico MPS 111201
2004 08 10.24426 21 53 33.56 -12 46 02.1 19.1   704 – Lincoln Laboratory ETS, New Mexico MPS 111201
2004 08 10.25447 21 53 32.81 -12 46 02.5 19.5   704 – Lincoln Laboratory ETS, New Mexico MPS 111201
2004 08 10.26460 21 53 32.13 -12 46 01.8 19.4   704 – Lincoln Laboratory ETS, New Mexico MPS 111201
2004 08 12.29238 21 51 16.28 -12 46 32.1 19.2   704 – Lincoln Laboratory ETS, New Mexico MPS 111201
2004 08 12.30240 21 51 15.51 -12 46 32.9 19.4   704 – Lincoln Laboratory ETS, New Mexico MPS 111201
2004 08 12.31239 21 51 14.85 -12 46 33.1 19.4   704 – Lincoln Laboratory ETS, New Mexico MPS 111201
2004 08 12.32252 21 51 14.11 -12 46 33.0 19.2   704 – Lincoln Laboratory ETS, New Mexico MPS 111201
2004 08 12.33251 21 51 13.36 -12 46 32.8 19.4   704 – Lincoln Laboratory ETS, New Mexico MPS 111201
2004 09 07.17844 21 25 49.90 -12 44 58.2 19.5   704 – Lincoln Laboratory ETS, New Mexico MPS 112950
2004 09 07.21224 21 25 48.33 -12 44 55.6 20.1   704 – Lincoln Laboratory ETS, New Mexico MPS 112950
2004 09 07.22351 21 25 47.89 -12 44 55.0 20.4   704 – Lincoln Laboratory ETS, New Mexico MPS 112950
2004 09 12.11845 21 22 48.71 -12 40 11.2 19.8 V 691 – Steward Observatory, Kitt Peak-Spacewatch MPS 112950
2004 09 12.14652 21 22 47.78 -12 40 09.6 19.8 V 691 – Steward Observatory, Kitt Peak-Spacewatch MPS 112950
2004 09 12.18175 21 22 46.57 -12 40 07.4 20.1 V 691 – Steward Observatory, Kitt Peak-Spacewatch MPS 112950
2007 05 16.60777 15 29 34.76 -34 23 10.4 18.6 V E12 – Siding Spring Survey MPS 208900
2007 05 16.61683 15 29 34.15 -34 23 09.1 18.5 V E12 – Siding Spring Survey MPS 208900
2007 05 16.62585 15 29 33.61 -34 23 06.9 18.7 V E12 – Siding Spring Survey MPS 208900
2007 05 16.63487 15 29 32.89 -34 23 06.9 18.2 V E12 – Siding Spring Survey MPS 208900
2008 10 26.31788 03 49 02.05 +31 02 51.5 20.7 V 691 – Steward Observatory, Kitt Peak-Spacewatch MPS 261478
2008 10 26.33568 03 49 01.07 +31 02 51.0 20.8 V 691 – Steward Observatory, Kitt Peak-Spacewatch MPS 261478
2008 10 26.35695 03 48 59.79 +31 02 50.4 20.9 V 691 – Steward Observatory, Kitt Peak-Spacewatch MPS 261478
2010 01 12.49216 11 33 06.12 +01 11 18.0 21.7 V G96 – Mt. Lemmon Survey MPS 310170
2010 01 12.49810 11 33 06.12 +01 11 16.1 21.3 V G96 – Mt. Lemmon Survey MPS 310170
2010 01 12.50413 11 33 06.19 +01 11 14.0 21.1 V G96 – Mt. Lemmon Survey MPS 310170
2010 01 12.51007 11 33 06.30 +01 11 12.4 20.5 V G96 – Mt. Lemmon Survey MPS 310170
2010 02 17.27185 11 22 07.59 -00 19 17.5 20.2 V 691 – Steward Observatory, Kitt Peak-Spacewatch MPS 313125
2010 02 17.29244 11 22 06.52 -00 19 16.7 20.0 V 691 – Steward Observatory, Kitt Peak-Spacewatch MPS 313125
2010 02 17.31006 11 22 05.61 -00 19 16.3 20.0 V 691 – Steward Observatory, Kitt Peak-Spacewatch MPS 313125
2010 03 12.27666 10 58 01.05 +00 26 37.9 19.7 V 703 – Catalina Sky Survey MPS 317885
2010 03 12.28189 10 58 00.62 +00 26 39.7 19.8 V 703 – Catalina Sky Survey MPS 317885
2010 03 12.28707 10 58 00.40 +00 26 40.1 19.8 V 703 – Catalina Sky Survey MPS 317885
2010 03 12.29229 10 58 00.01 +00 26 42.0 19.2 V 703 – Catalina Sky Survey MPS 317885
2010 03 19.27786 10 50 19.95 +00 49 04.3 19.0 C 704 – Lincoln Laboratory ETS, New Mexico MPS 319297
2010 03 19.29985 10 50 18.52 +00 49 09.7 19.1 C 704 – Lincoln Laboratory ETS, New Mexico MPS 319297
2010 03 19.31085 10 50 17.94 +00 49 10.8 19.6 C 704 – Lincoln Laboratory ETS, New Mexico MPS 319297
2010 05 30.887016 10 52 08.35 -00 05 41.0   C51 – WISE MPS 330771
2010 05 31.019319 10 52 16.89 -00 06 27.7   C51 – WISE MPS 330771
2010 05 31.416231 10 52 42.38 -00 08 50.0   C51 – WISE MPS 330771
2010 05 31.482447 10 52 46.73 -00 09 11.8   C51 – WISE MPS 330771
2010 05 31.614751 10 52 55.231 -00 09 59.40   C51 – WISE MPS 903939
2010 05 31.680839 10 52 59.55 -00 10 24.0   C51 – WISE MPS 330771
2010 05 31.746927 10 53 03.886 -00 10 45.41   C51 – WISE MPS 903939
2010 05 31.747054 10 53 03.95 -00 10 48.0   C51 – WISE MPS 330771
2010 05 31.813142 10 53 08.069 -00 11 09.74   C51 – WISE MPS 903939
2010 05 31.879231 10 53 12.48 -00 11 35.2   C51 – WISE MPS 330771
2010 05 31.879359 10 53 12.52 -00 11 35.9   C51 – WISE MPS 330771
2010 06 01.011535 10 53 21.12 -00 12 23.6   C51 – WISE MPS 330771
2010 06 01.143839 10 53 29.77 -00 13 11.6   C51 – WISE MPS 330771
2010 06 01.27614 10 53 38.41 -00 14 00.5   C51 – WISE MPS 330771
2010 06 01.408447 10 53 47.10 -00 14 47.5   C51 – WISE MPS 330771
2011 09 26.95417 01 08 40.06 +17 27 01.8 19.4 R 152 – Moletai Astronomical Observatory MPS 617408
2011 09 26.95861 01 08 39.75 +17 26 59.9 19.6 R 152 – Moletai Astronomical Observatory MPS 617408
2011 09 27.00237 01 08 36.88 +17 26 53.9 19.0 R 152 – Moletai Astronomical Observatory MPS 617408
2011 09 27.00705 01 08 36.70 +17 26 52.7 19.2 R 152 – Moletai Astronomical Observatory MPS 617408
2011 09 27.05014 01 08 33.93 +17 26 45.8 19.3 R 152 – Moletai Astronomical Observatory MPS 617408
2011 09 27.05453 01 08 33.63 +17 26 44.2 19.8 R 152 – Moletai Astronomical Observatory MPS 617408
2011 09 30.83400 01 04 33.85 +17 15 06.5 19.7   152 – Moletai Astronomical Observatory MPS 628349
2011 09 30.84902 01 04 32.76 +17 15 03.3 19.1   152 – Moletai Astronomical Observatory MPS 628349
2011 09 30.86377 01 04 31.94 +17 15 00.7 19.3   152 – Moletai Astronomical Observatory MPS 628350
2011 10 21.30808 00 42 43.650 +15 33 40.67 21.0 w F51 – Pan-STARRS 1, Haleakala MPS 398044
2011 10 21.32192 00 42 42.825 +15 33 35.82 21.0 w F51 – Pan-STARRS 1, Haleakala MPS 398044
2011 10 21.34958 00 42 41.148 +15 33 25.88 20.8 w F51 – Pan-STARRS 1, Haleakala MPS 398044
2011 10 28.23928 00 36 33.94 +14 52 28.7 19.8 V G96 – Mt. Lemmon Survey MPS 398044
2011 10 28.24621 00 36 33.58 +14 52 26.4 20.4 V G96 – Mt. Lemmon Survey MPS 398044
2011 10 28.25318 00 36 33.22 +14 52 24.1 20.3 V G96 – Mt. Lemmon Survey MPS 398044
2011 10 28.26015 00 36 32.90 +14 52 21.5 20.6 V G96 – Mt. Lemmon Survey MPS 398044
2013 01 06.29011 08 44 34.94 +22 28 00.1 20.9 V 691 – Steward Observatory, Kitt Peak-Spacewatch MPS 450808
2013 01 06.30782 08 44 33.85 +22 28 02.6 20.6 V 691 – Steward Observatory, Kitt Peak-Spacewatch MPS 450808
2013 01 06.32552 08 44 32.81 +22 28 04.5 20.8 V 691 – Steward Observatory, Kitt Peak-Spacewatch MPS 450808
2013 01 10.22361 08 40 35.01 +22 36 00.3   691 – Steward Observatory, Kitt Peak-Spacewatch MPS 450808
2013 01 10.24131 08 40 33.81 +22 36 02.8   691 – Steward Observatory, Kitt Peak-Spacewatch MPS 450808
